NOAA 15 (25338 NORAD) Tracking and Keplerian Element Data

This shows tracking and keplerian element data for the satellite.

Feedback or suggestion? Click here.




ElementValue
Catalog25338
NameNOAA 15
Epoch Orbit39051
Epoch Day35.15571386
Epoch Year2025
RAAN63.2273
Inclination98.5493
Eccentricity0.0010371
Argument of Perigee12.6621
Mean Anonmoly347.4818
Mean Motion14.26874507
Decay Rate3.41E-06
L11 25338U 98030A 25035.15571386 .00000341 00000+0 15802-3 0 9998
L22 25338 98.5493 63.2273 0010371 12.6621 347.4818 14.26874507390511



Live tracking and technical data element details for NOAA 15 (NORAD 25338). NOAA 15 can be tracked NOW for your location showing map with azimuth and elevation plus other details from your city location.







IsCatalogInMostPopularTable: catalog: 25338, numindb: 1563
Update: records affected: 1



GetName: 25338 NOAA 15

Hit Count: updated at: Thu, 10 Jul 2025 22:58:21 GMT